DW9572 Weather Reports


time (UTC)temp
F
wind
direction
speed
knots
gust
knots
rain 1hr
in
rain 24hr
in
rain mn
in
humidity
%
barometer
mb
20240222113049 42 281 2.6 7.0 0.00 0.00 0.00 87 1023.8
20240222111510 40 290 3.5 12.2 0.00 0.00 0.00 87 1023.7
20240222110011 41 260 5.2 7.8 0.00 0.00 0.00 88 1023.7
20240222104551 40 248 3.5 6.1 0.00 0.00 0.00 90 1023.6
20240222103047 41 225 2.6 6.1 0.00 0.00 0.00 88 1023.6
20240222101529 42 285 3.5 6.1 0.00 0.00 0.00 88 1023.5
20240222100049 41 225 0.9 2.6 0.00 0.00 0.00 87 1023.4
20240222094507 42 307 1.7 3.5 0.00 0.00 0.00 84 1023.3
20240222093011 42 236 1.7 5.2 0.00 0.00 0.00 86 1023.2
20240222091605 42 224 4.3 7.0 0.00 0.00 0.00 85 1023.1
20240222090046 43 238 4.3 6.1 0.00 0.00 0.00 85 1023.0
20240222084543 42 240 4.3 6.1 0.00 0.00 0.00 85 1022.9
20240222083025 42 239 3.5 5.2 0.00 0.00 0.00 86 1022.9
20240222081522 43 242 2.6 3.5 0.00 0.00 0.00 85 1022.8
20240222080004 43 53 0.0 1.7 0.00 0.00 0.00 83 1022.6
20240222074503 44 232 2.6 4.3 0.00 0.00 0.00 84 1022.6
20240222073046 45 288 4.3 5.2 0.00 0.00 0.00 82 1022.3
20240222071543 44 258 2.6 6.1 0.00 0.00 0.00 85 1022.2
20240222070023 43 238 3.5 5.2 0.00 0.00 0.00 88 1022.0
20240222064525 44 240 1.7 4.3 0.00 0.00 0.00 86 1021.9
20240222063003 44 215 2.6 5.2 0.00 0.00 0.00 85 1021.8
20240222061502 44 273 0.0 7.8 0.00 0.00 0.00 85 1021.6
20240222060042 45 224 8.7 9.6 0.00 0.00 0.00 85 1021.4
20240222054542 45 228 7.0 7.8 0.00 0.00 0.00 84 1021.3
20240222053023 45 230 7.8 8.7 0.00 0.00 0.00 84 1021.2
20240222051524 45 230 5.2 7.0 0.00 0.00 0.00 83 1021.0
20240222050107 45 240 5.2 7.8 0.00 0.00 0.00 83 1020.8
20240222044558 47 232 6.1 7.8 0.00 0.00 0.00 79 1020.6
20240222043039 49 211 5.2 7.0 0.00 0.00 0.00 77 1020.4
20240222041537 49 281 3.5 7.8 0.00 0.00 0.00 77 1020.2
20240222040025 49 269 0.0 5.2 0.00 0.00 0.00 78 1020.0
20240222034519 47 257 4.3 6.1 0.00 0.00 0.00 81 1019.9
20240222033057 47 233 7.0 9.6 0.00 0.00 0.00 82 1019.7
20240222031606 46 226 8.7 10.4 0.00 0.00 0.00 85 1019.5
20240222030041 46 224 10.4 13.0 0.00 0.00 0.00 85 1019.2
20240222024534 46 245 7.8 10.4 0.00 0.00 0.00 83 1019.0
20240222023014 46 193 5.2 7.8 0.00 0.00 0.00 84 1019.0
20240222021512 47 155 3.5 6.1 0.00 0.00 0.00 83 1019.0
20240222020053 47 105 3.5 7.0 0.00 0.00 0.00 84 1018.8
20240222014603 47 194 1.7 9.6 0.00 0.00 0.00 84 1018.3
20240222013035 48 152 5.2 7.8 0.00 0.00 0.00 83 1018.1
20240222011530 49 128 2.6 3.5 0.00 0.00 0.00 81 1018.1
20240222010013 50 150 4.3 8.7 0.00 0.00 0.00 80 1017.8
20240222004508 51 179 9.6 14.8 0.00 0.00 0.00 76 1017.4
20240222003049 51 199 9.6 13.9 0.00 0.00 0.00 75 1017.2
20240222001551 52 205 9.6 12.2 0.00 0.00 0.00 74 1017.2
20240222000031 52 200 6.1 10.4 0.00 0.00 0.00 73 1017.1
20240221234540 53 194 7.0 10.4 0.00 0.00 0.00 72 1016.9
20240221233008 52 233 5.2 8.7 0.00 0.00 0.00 73 1017.0
20240221231506 52 222 5.2 8.7 0.00 0.00 0.00 74 1016.9
20240221230048 51 224 9.6 13.0 0.00 0.00 0.00 73 1016.8
20240221224546 52 230 8.7 13.9 0.00 0.00 0.00 73 1016.9
20240221223025 51 228 7.8 10.4 0.00 0.00 0.00 76 1016.8
20240221221533 50 188 9.6 13.0 0.00 0.00 0.00 77 1016.8
20240221220011 50 162 13.0 16.5 0.00 0.00 0.00 77 1016.7
20240221214509 50 207 10.4 14.8 0.00 0.00 0.00 78 1016.6
20240221213024 49 193 10.4 13.0 0.00 0.00 0.00 81 1016.6
20240221211504 49 166 8.7 12.2 0.00 0.00 0.00 81 1016.6
20240221210009 48 169 7.0 11.3 0.00 0.00 0.00 82 1016.5
20240221204606 48 165 6.1 7.8 0.00 0.00 0.00 85 1016.5
20240221203102 47 143 3.5 5.2 0.00 0.00 0.00 86 1016.6
20240221201554 46 158 3.5 5.2 0.00 0.00 0.00 87 1016.5
20240221200035 46 134 0.9 5.2 0.00 0.00 0.00 88 1016.5
20240221194534 45 133 1.7 4.3 0.00 0.00 0.00 88 1016.6
20240221193018 45 117 2.6 4.3 0.00 0.00 0.00 88 1016.4
20240221191517 45 118 0.0 0.0 0.00 0.00 0.00 88 1016.5
20240221190057 45 105 0.0 0.0 0.00 0.00 0.00 89 1016.2
20240221184559 45 62 0.0 0.0 0.00 0.00 0.00 89 1016.3
20240221183039 45 66 0.0 0.0 0.00 0.00 0.00 89 1016.1
20240221181535 45 75 0.0 0.9 0.00 0.00 0.00 91 1016.1
20240221180014 44 104 0.0 0.0 0.00 0.00 0.00 90 1015.9
20240221174513 44 97 0.0 0.0 0.00 0.00 0.00 90 1015.8
20240221173054 44 95 0.0 0.0 0.00 0.00 0.00 91 1015.6
20240221171559 43 94 0.0 0.0 0.00 0.00 0.00 92 1015.5
20240221170033 43 95 0.0 0.0 0.00 0.00 0.00 92 1015.3
20240221164524 42 95 0.0 0.0 0.00 0.00 0.00 92 1015.1
20240221163004 42 155 0.0 0.0 0.00 0.00 0.00 91 1014.9
20240221161501 0 0.0 0.0 0.00 0.00 0.00 1014.7
20240221160048 0 0.0 0.0 0.00 0.00 0.00 1014.6
20240221154540 0 0.0 0.0 0.00 0.00 0.00 1014.6
20240221153012 0 0.0 0.0 0.00 0.00 0.00 1014.5
20240221151509 0 0.0 0.0 0.00 0.00 0.00 1014.4
20240221150047 0 0.0 0.0 0.00 0.00 0.00 1014.4
20240221144543 0 0.0 0.0 0.00 0.00 0.00 1014.1
20240221143023 0 0.0 0.0 0.00 0.00 0.00 1014.0
20240221141529 0 0.0 0.0 0.00 0.00 0.00 1014.1
20240221140056 0 0.0 0.0 0.00 0.00 0.00 1014.0
20240221134558 0 0.0 0.0 0.00 0.00 0.00 1014.0
20240221133034 0 0.0 0.0 0.00 0.00 0.00 1014.0
20240221131544 0 0.0 0.0 0.00 0.00 0.00 1013.8
20240221130019 0 0.0 0.0 0.00 0.00 0.00 1013.5
20240221124515 0 0.0 0.0 0.00 0.00 0.00 1013.7
20240221123111 0 0.0 0.0 0.00 0.00 0.00 1013.7
20240221121554 0 0.0 0.0 0.00 0.00 0.00 1013.7
20240221120045 0 0.0 0.0 0.00 0.00 0.00 1013.6
20240221114525 42 243 0.9 4.3 0.00 0.00 0.00 92 1013.7